Location: Ameuvelle
(47.9423°N, 5.9463°E)
Time: 17:39:25
(UTC+00:00)

Daily predictions for brighter satellites

Satellite Brightness Start Highest point End
(mag) Time Altitude Azimuth Time Altitude Azimuth Time Altitude Azimuth
Cosmos 1812 4.1 19:37:13 10° NNE 19:40:24 24° ENE 19:43:34 10° SE
Cosmos 1933 3.3 19:36:45 10° N 19:40:48 79° E 19:44:49 10° SSE
Cosmos 1689 Rocket 2.6 19:38:39 10° N 19:41:23 57° WNW 19:44:03 10° SSW
Cosmos 1782 3.1 19:38:48 10° N 19:42:43 49° ENE 19:46:35 10° SSE
Landsat 7 4.2 19:39:20 10° SE 19:43:53 49° ENE 19:48:29 10° N
MOS 1 4.4 19:41:57 10° SSE 19:47:37 88° WSW 19:53:19 10° NNW
SL-27 R/B 3.4 19:45:19 10° SSE 19:48:29 30° ESE 19:51:40 10° NE
Cosmos 2333 Rocket 3.1 19:46:06 10° NNW 19:51:16 35° NE 19:56:25 10° ESE
BREEZE-M DEB (TANK) 2.7 19:49:33 10° W 19:52:15 48° SSW 19:58:22 10° SE
Cosmos 2237 Rocket 4.4 19:49:45 10° N 19:52:46 14° NE 19:55:47 10° ENE
Cosmos 2322 Rocket 2.3 19:47:51 10° NNW 19:53:32 82° WSW 19:59:07 10° SSE
Cosmos 2195 Rocket 4.4 19:50:07 10° S 19:56:12 74° E 20:02:19 10° NNE
SPOT 5 4.4 19:53:08 10° ESE 19:56:15 19° ENE 19:59:27 10° NNE
IRS-1A Rocket 4.4 19:51:17 10° SSE 19:56:47 78° WSW 20:02:20 10° NNW
USA 234 4.4 19:51:40 10° ENE 19:57:48 44° N 20:03:54 10° W
ARIANE 5 R/B 4.1 19:54:27 10° ESE 19:57:55 23° ENE 20:01:22 10° NNE
BREEZE-M R/B 4.3 19:56:04 10° SSW 19:59:47 18° SSE 20:02:21 10° ESE
OBJECT-B 3.2 19:57:45 10° SSW 20:00:21 23° W 20:02:59 10° NW
Cosmos 923 Rocket 4.2 19:55:03 10° SSW 20:00:23 82° WNW 20:05:46 10° NNE
BREEZE-M DEB (TANK) 4.0 20:01:36 10° W 20:04:46 49° SSW 20:12:58 12° SE
Cosmos 2219 Rocket 3.1 20:00:18 10° NNW 20:05:28 36° NE 20:10:11 12° ESE
Resurs 1-3 4.3 20:03:04 10° S 20:07:21 55° W 20:11:41 10° NNW
Cosmos 2056 Rocket 3.5 20:05:00 10° NNW 20:10:22 84° ENE 20:15:29 11° SSE
ATLAS 5 CENTAUR R/B 3.1 20:06:29 10° NNW 20:11:31 41° NE 20:17:08 11° ESE
Spot 2 Rocket 4.0 20:14:03 13° SE 20:18:15 45° ENE 20:23:07 10° N
SPOT 1/Viking Rocket 3.6 20:14:27 11° SSE 20:19:28 70° ENE 20:24:41 10° N
USA 245 3.6 20:16:53 14° SE 20:20:18 50° ENE 20:23:39 10° N
Cosmos 1408 Rocket 4.1 20:17:00 12° SSE 20:20:42 38° E 20:24:43 10° NNE
Cosmos 1092 Rocket 4.4 20:15:33 10° SSW 20:21:49 71° W 20:28:12 10° N
NOSS 2-1 (E) 2.9 20:19:06 10° SW 20:22:22 84° NW 20:25:50 10° NE
Cosmos 2026 Rocket 4.1 20:19:10 10° S 20:25:28 81° W 20:31:43 10° N
CZ-2C R/B 3.9 20:21:44 10° NNE 20:26:05 49° E 20:30:23 10° S
SL-16 R/B 3.5 20:21:42 10° NW 20:26:50 36° WSW 20:31:57 10° S
IGS 5A 4.1 20:23:58 10° S 20:28:01 55° W 20:32:07 10° NNW
GP-B 3.0 20:24:32 10° N 20:29:00 82° E 20:33:27 10° S
Cosmos 1151 Rocket 3.4 20:27:13 10° NNW 20:31:34 66° W 20:35:54 10° S
CARTOSAT-1 3.8 20:29:08 18° SE 20:32:12 55° ENE 20:36:26 10° N
Cosmos 1680 Rocket 4.2 20:27:42 10° SW 20:32:53 59° WNW 20:38:05 10° NNE
NOSS 3-1 (C) 4.1 20:26:29 10° NW 20:33:55 90° SW 20:40:55 17° SE
Cosmos 2112 Rocket 4.5 20:29:27 10° SSW 20:34:42 65° WNW 20:39:56 10° NNE
Lacrosse 5 3.1 20:33:37 18° SE 20:34:55 20° ESE 20:38:34 10° ENE
Okean 3 Rocket 3.8 20:32:41 10° SSW 20:37:12 78° W 20:41:46 10° N
Cosmos 2333 4.2 20:32:08 10° NNW 20:37:46 80° ENE 20:41:51 19° SSE
ERS-2 3.3 20:37:33 10° N 20:41:03 44° WNW 20:44:31 10° SW
MetOp-B 4.4 20:36:35 11° S 20:41:45 71° WSW 20:47:07 10° NNW
Meteor 1-10 Rocket 4.2 20:37:01 10° N 20:42:36 75° ENE 20:46:47 18° SSE
CZ-4C R/B 4.5 20:40:39 10° NW 20:45:56 25° NNE 20:52:02 10° ENE
COSMOS 2487 2.8 20:45:41 28° SSE 20:46:58 41° ESE 20:50:11 10° NE
Cosmos 1515 Rocket 3.5 20:44:28 10° N 20:48:55 82° E 20:51:45 22° SSE
GEOS 3 Rocket 4.4 20:44:31 10° NE 20:49:37 55° NW 20:54:37 10° WSW
COSMOS 2428 2.9 20:44:40 10° NNW 20:50:20 61° ENE 20:53:52 23° SE
USA 229 DEB 4.0 20:44:50 10° NW 20:52:09 79° NE 20:57:36 21° SE
USA 229 4.0 20:44:56 10° NW 20:52:14 78° NE 20:57:42 21° SE
COSMOS 2455 2.8 20:47:11 10° SSW 20:53:07 66° ESE 20:59:06 10° NE
Cosmos 292 Rocket 4.1 20:52:00 10° NNW 20:56:43 60° WSW 20:59:58 20° S
Terra 2.2 20:54:30 25° SE 20:56:59 49° ENE 21:01:35 10° N
Cosmos 1328 Rocket 4.5 20:53:36 10° NNW 20:57:51 46° W 21:01:43 12° SSW
Cosmos 2360 Rocket 3.1 20:54:53 10° NW 21:00:11 43° WSW 21:04:37 14° S
Cosmos 2084 Rocket 4.1 20:56:10 10° NNW 21:00:13 47° NE 21:02:26 24° ESE
Cosmos 1048 Rocket 4.2 20:59:49 22° SSE 21:02:46 47° ESE 21:07:40 10° NNE
Cosmos 972 Rocket 4.0 21:01:58 18° S 21:05:40 58° ESE 21:10:30 10° NNE
Resurs 01 Rocket 3.7 21:06:32 10° SSW 21:10:07 24° W 21:13:44 10° NW
NOSS 3-1 (A) 4.1 21:05:17 10° NW 21:12:45 86° SW 21:18:16 25° SE
Cosmos 2266 Rocket 3.9 21:09:42 18° S 21:14:28 78° E 21:20:48 10° NNE
Cosmos 1812 4.5 21:12:48 10° NNW 21:16:09 28° W 21:19:06 12° SSW
H-2A R/B 4.3 21:12:52 10° NNE 21:16:40 32° E 21:17:03 31° ESE
Cosmos 1980 4.5 21:11:18 10° NNW 21:16:40 41° NE 21:19:35 24° ESE
ERS-1 Rocket 3.1 21:20:14 27° S 21:22:58 73° WSW 21:28:00 10° NNW
Cosmos 2228 Rocket 3.0 21:20:51 10° N 21:25:19 80° E 21:26:53 40° SSE
Cosmos 2285 Rocket 4.0 21:23:27 10° NNW 21:29:46 79° WSW 21:33:03 30° SSE
Cosmos 2297 Rocket 3.2 21:31:26 27° ESE 21:31:48 27° ESE 21:36:30 10° NE
Cosmos 1805 Rocket 3.5 21:31:35 43° SSE 21:32:56 69° E 21:37:20 10° NNE
SPOT 5 3.1 21:31:58 30° SSW 21:33:56 54° W 21:38:23 10° NNW
ARIANE 5 R/B 3.5 21:31:52 24° SSW 21:34:07 44° W 21:38:22 10° NNW
Cosmos 2315 Rocket 4.0 21:27:55 10° N 21:34:18 87° E 21:37:37 31° S
BREEZE-M DEB (TANK) 1.9 21:28:53 10° WNW 21:34:19 71° SSW 21:34:36 65° SSE
NOSS 0 Rocket 3.9 21:28:46 10° NNW 21:35:02 77° ENE 21:37:53 34° SE
Cosmos 2333 Rocket 2.9 21:30:19 10° NW 21:35:41 45° WSW 21:38:33 25° SSW
Cosmos 2237 Rocket 2.6 21:32:35 10° NNW 21:38:11 54° ENE 21:40:34 33° ESE
Cosmos 2322 4.4 21:33:12 10° NW 21:38:39 46° WSW 21:41:30 26° SSW
USA 234 4.3 21:33:56 10° ENE 21:40:02 43° N 21:46:08 10° WNW
Cosmos 1452 Rocket 4.1 21:37:05 10° NNW 21:42:08 48° WSW 21:44:29 29° SSW
Meteor 1-20 Rocket 4.2 21:40:22 36° SSE 21:42:41 67° E 21:48:24 10° NNE
Cosmos 1500 Rocket 4.2 21:40:12 22° SSW 21:42:51 55° WNW 21:47:16 10° N
Cosmos 2227 Rocket 3.3 21:44:50 26° ESE 21:44:50 26° ESE 21:49:26 10° NE
NOSS 2-2 (E) 4.5 21:40:38 10° NW 21:45:53 75° NE 21:49:13 33° SE
ALOS 2 4.4 21:45:45 18° E 21:46:51 19° ENE 21:49:57 10° NNE
Cosmos 2219 Rocket 2.9 21:44:14 10° NW 21:49:30 43° WSW 21:51:54 28° SSW
USA 40 PKM 4.3 21:46:21 10° NW 21:50:02 77° NNE 21:50:40 57° ESE
Sich 1 2.9 21:53:27 55° S 21:54:24 89° ESE 21:58:44 10° N
ATLAS 5 CENTAUR R/B 2.7 21:50:55 10° NW 21:56:23 53° WSW 21:58:38 36° S
Cosmos 1515 3.5 21:53:27 10° N 21:57:15 87° W 21:57:27 80° S
Cosmos 1331 Rocket 4.0 21:52:52 10° NNW 21:58:05 73° WSW 21:59:36 46° S
Cosmos 1110 Rocket 4.2 21:54:14 10° NNW 21:59:31 65° WSW 22:01:08 43° S
SL-16 R/B 3.2 22:05:19 10° NNW 22:10:36 38° NE 22:12:56 27° E
Cosmos 1633 Rocket 3.0 22:10:51 63° ESE 22:10:59 64° E 22:15:18 10° NNE
NOSS 2-2 (C) 4.3 22:06:40 10° NW 22:11:55 88° NE 22:14:24 42° SE
Cosmos 1470 Rocket 4.3 22:14:08 39° E 22:14:08 39° E 22:17:54 10° NNE
Cosmos 494 Rocket 4.4 22:11:18 23° SW 22:14:26 58° WNW 22:19:32 10° NNE
Cosmos 1666 3.9 22:15:50 32° ENE 22:15:50 32° ENE 22:18:34 10° NNE
Lacrosse 5 1.7 22:12:21 11° SW 22:17:18 89° SE 22:22:25 10° NE
Cosmos 1666 Rocket 3.5 22:21:09 69° SSW 22:21:40 83° W 22:26:11 10° N
Cosmos 1602 4.2 22:22:55 50° W 22:23:14 52° WNW 22:27:00 10° N
SL-08 ROCKET BODY 4.4 22:21:32 46° S 22:23:29 82° E 22:29:42 10° N
Cosmos 1340 Rocket 4.0 22:28:39 31° ENE 22:28:39 31° ENE 22:31:23 10° NNE
COSMOS 2428 4.2 22:29:41 10° NW 22:34:10 24° WSW 22:35:52 21° SW
Terra 3.6 22:33:24 19° WSW 22:34:59 22° W 22:38:42 10° NW
CZ-4C R/B 3.4 22:29:06 10° NW 22:35:57 56° NE 22:41:11 23° ESE
COBE Rocket 3.8 22:36:50 63° SW 22:37:20 68° W 22:42:06 10° NNW
Meteor 2-4 Rocket 3.7 22:33:30 10° NNW 22:39:28 90° W 22:40:46 57° S
CZ-3B R/B 2.5 22:32:51 10° WNW 22:39:48 51° WSW 22:39:48 51° WSW
Timation 2 Rocket 4.0 22:39:26 50° SE 22:40:06 52° ESE 22:46:04 10° NE
Cosmos 1992 Rocket 4.1 22:37:10 10° NNW 22:42:23 63° ENE 22:43:15 54° ESE
Cosmos 2242 Rocket 4.1 22:40:15 10° N 22:44:33 48° ENE 22:44:34 48° ENE
Cosmos 1862 Rocket 3.7 22:41:00 10° NNW 22:45:16 60° W 22:45:19 60° W
USA 267 3.4 22:41:33 10° ENE 22:47:49 47° SE 22:48:10 46° SE
Cosmos 2219 3.1 22:48:17 56° SSW 22:49:34 85° ESE 22:55:22 10° NNE
Meteor 1-5 Rocket 4.2 22:49:37 59° S 22:50:46 81° E 22:56:45 10° NNE
Spot 4 3.9 22:52:09 63° SW 22:52:32 66° WSW 22:57:23 10° NNW
Cosmos 1500 4.4 22:59:15 36° WNW 22:59:16 36° WNW 23:02:51 10° N
Cosmos 1980 4.5 22:55:33 10° NW 23:00:42 37° WSW 23:01:24 36° WSW
Cosmos 2082 3.9 23:01:12 52° ESE 23:01:26 53° ESE 23:07:00 10° NE
Cosmos 1703 Rocket 3.6 22:57:09 10° N 23:01:20 70° NE 23:01:20 70° NE
Cosmos 1378 3.9 23:01:06 10° N 23:03:58 50° N 23:03:58 50° N
Cosmos 909 Rocket 4.2 23:02:47 47° SSW 23:04:57 79° ESE 23:12:53 10° NE
Meteor 1-11 Rocket 3.8 23:05:19 53° ESE 23:05:48 54° E 23:11:11 10° NNE
Okean 1-7 3.1 23:05:38 10° N 23:09:33 74° N 23:09:33 74° N
Cosmos 2181 Rocket 4.4 23:05:03 10° N 23:11:13 54° ENE 23:12:46 43° ESE
Cosmos 2297 Rocket 2.7 23:13:12 33° WSW 23:15:31 54° WNW 23:21:06 10° NNE
Meteor 2-17 Rocket 4.4 23:15:37 56° SSW 23:16:58 80° W 23:23:04 10° N
Nimbus 7 Rocket 4.4 23:12:01 10° NNE 23:18:00 66° ESE 23:18:52 58° SE
Cosmos 2237 Rocket 3.4 23:17:12 10° NW 23:21:56 28° WSW 23:22:23 27° WSW
USA 234 3.4 23:18:04 22° ESE 23:22:35 74° NNE 23:29:07 10° NW
ALOS 2 3.0 23:23:09 52° W 23:23:09 52° W 23:27:08 10° NNW
Cosmos 614 Rocket 4.2 23:23:41 56° ESE 23:23:41 56° ESE 23:28:45 10° NNE
Cosmos 1461 3.4 23:27:18 57° ENE 23:27:18 57° ENE 23:30:55 10° NE
Cosmos 1709 Rocket 3.9 23:26:19 58° S 23:27:44 89° W 23:34:10 10° N
Meteor 1-13 Rocket 4.1 23:22:24 10° NNW 23:28:07 76° W 23:28:50 66° SSW
Cosmos 2227 Rocket 2.6 23:26:36 38° WSW 23:28:30 56° WNW 23:34:06 10° NNE
SL-24 R/B - RUBIN 2 4.5 23:26:37 10° NNW 23:31:38 50° NE 23:32:45 41° E
Cosmos 2263 Rocket 3.0 23:33:28 36° ESE 23:33:29 36° ESE 23:38:39 10° NE
Cosmos 2344 4.2 23:34:41 33° SE 23:35:37 34° ESE 23:42:17 10° NE
Cosmos 1603 4.5 23:33:57 10° NNW 23:39:23 46° NE 23:41:31 32° ESE
Cosmos 1536 3.3 23:40:44 60° N 23:40:44 60° N 23:44:08 10° N
PSLV R/B 4.0 23:38:03 10° NNE 23:42:34 57° E 23:42:34 57° E
Okean 3 3.8 23:42:06 10° NNW 23:45:46 59° NW 23:45:46 59° NW
Cosmos 1869 Rocket 3.6 23:47:06 74° NW 23:47:06 74° NW 23:51:18 10° N
ASTEX 1 4.2 23:46:47 38° E 23:47:30 40° ENE 23:52:07 10° N
Cosmos 44 3.4 23:46:30 10° NW 23:51:25 65° W 23:51:25 65° W
Thor Agena Rocket 3.3 23:47:15 10° NNE 23:52:20 77° ESE 23:52:34 75° SE
